This is the latest recevied weather packets stored in our database for station/object LZ1HCO-25. If no packets are shown the sender has not sent any weather packets the latest 10 day(s).
| Time | Temp. | Humidity | Pressure | Rain* | Wind** | Luminosity | Snow |
|---|---|---|---|---|---|---|---|
| 1777820374 | 12.78° C | 57% | 973 hPa | - | - | 0 W/m² | - |
| 1777820063 | 12.78° C | 57% | 973 hPa | - | - | 0 W/m² | - |
| 1777819751 | 12.78° C | 58% | 973 hPa | - | - | 0 W/m² | - |
| 1777819440 | 13.89° C | 57% | 973 hPa | - | - | 0 W/m² | - |
| 1777819129 | 13.89° C | 56% | 973 hPa | - | - | 0 W/m² | - |
| 1777818817 | 13.89° C | 54% | 973 hPa | - | - | 0 W/m² | - |
| 1777818506 | 13.33° C | 53% | 973 hPa | - | - | 0 W/m² | - |
| 1777818194 | 14.44° C | 53% | 973 hPa | - | - | 0 W/m² | - |
| 1777818064 | 12.78° C | 52% | 973 hPa | - | - | 0 W/m² | - |
| 1777817753 | 13.33° C | 54% | 973 hPa | - | - | 0 W/m² | - |
| 1777817441 | 13.33° C | 56% | 974 hPa | - | - | 0 W/m² | - |
| 1777817130 | 13.33° C | 57% | 974 hPa | - | - | 0 W/m² | - |
| 1777816819 | 13.33° C | 57% | 974 hPa | - | - | 0 W/m² | - |
| 1777816507 | 13.89° C | 59% | 974 hPa | - | - | 0 W/m² | - |
| 1777816196 | 13.89° C | 58% | 974 hPa | - | - | 0 W/m² | - |
| 1777815885 | 14.44° C | 60% | 974 hPa | - | - | 0 W/m² | - |
| 1777815573 | 13.33° C | 59% | 974 hPa | - | - | 0 W/m² | - |
| 1777815262 | 13.89° C | 63% | 974 hPa | - | - | 0 W/m² | - |
| 1777814951 | 13.89° C | 61% | 974 hPa | - | - | 0 W/m² | - |
| 1777814639 | 12.22° C | 62% | 974 hPa | - | - | 0 W/m² | - |
| 1777814328 | 12.78° C | 62% | 974 hPa | - | - | 0 W/m² | - |
| 1777814016 | 13.33° C | 55% | 974 hPa | - | - | 0 W/m² | - |
| 1777813705 | 12.78° C | 55% | 974 hPa | - | - | 0 W/m² | - |
| 1777813394 | 13.33° C | 58% | 974 hPa | - | - | 0 W/m² | - |
| 1777813082 | 11.67° C | 58% | 974 hPa | - | - | 0 W/m² | - |
* Rain since midnight (hover to see other rain measurements)
** Current wind speed in m/s (hover to see current wind gust speed)